DW7816 Weather Reports


Display with metric or nautical units.
time (UTC)temp
F
wind
direction
speed
MPH
gust
MPH
rain 1hr
in
rain 24hr
in
rain mn
in
humidity
%
barometer
mb
20260508072833 43 294 0.0 0.0 0.00 0.00 0.00 96 1014.9
20260508071850 43 294 0.0 0.0 0.00 0.00 0.00 96 1015.0
20260508070835 43 294 0.0 0.0 0.00 0.00 0.00 96 1015.1
20260508064619 43 294 0.0 0.0 0.00 0.00 0.00 96 1015.2
20260508063607 43 294 0.0 0.0 0.00 0.00 0.00 96 1015.2
20260508062626 43 294 0.0 0.0 0.00 0.00 0.00 96 1015.3
20260508061644 43 294 0.0 0.0 0.00 0.00 0.00 96 1015.3
20260508055526 43 294 0.0 0.0 0.00 0.00 0.00 95 1015.3
20260508054504 43 294 0.0 0.0 0.00 0.00 0.00 95 1015.2
20260508052325 43 294 0.0 0.0 0.00 0.00 0.00 95 1015.6
20260508051333 44 294 0.0 0.0 0.00 0.00 0.00 94 1015.6
20260508050340 44 294 0.0 0.0 0.00 0.00 0.00 94 1015.8
20260508045359 44 294 0.0 0.0 0.00 0.00 0.00 94 1015.8
20260508043245 45 294 0.0 0.0 0.00 0.00 0.00 93 1015.9
20260508042215 45 294 0.0 0.0 0.00 0.00 0.00 93 1015.9
20260508040056 45 294 0.0 0.0 0.00 0.00 0.00 92 1016.1
20260508035049 46 294 0.0 0.0 0.00 0.00 0.00 92 1015.9
20260508032950 46 294 0.0 0.0 0.00 0.00 0.00 91 1016.2
20260508031956 47 294 0.0 0.0 0.00 0.00 0.00 90 1016.2
20260508030947 47 294 0.0 0.0 0.00 0.00 0.00 90 1016.2
20260508024827 48 294 0.0 0.0 0.00 0.00 0.00 88 1015.9
20260508023837 49 294 0.0 0.0 0.00 0.00 0.00 88 1015.7
20260508021658 50 294 0.0 0.0 0.00 0.00 0.00 84 1015.3
20260508020629 51 294 0.0 0.0 0.00 0.00 0.00 82 1015.2
20260508015641 52 294 0.0 0.0 0.00 0.00 0.00 81 1015.1
20260508013511 55 294 0.0 0.0 0.00 0.00 0.00 76 1014.9
20260508012516 56 294 0.0 0.0 0.00 0.00 0.00 72 1014.8
20260508010341 59 294 0.0 0.0 0.00 0.00 0.00 65 1014.6
20260508005356 60 294 0.0 0.0 0.00 0.00 0.00 63 1014.6
20260508004341 61 340 0.0 0.0 0.00 0.00 0.00 60 1014.6
20260508003312 62 342 0.0 0.0 0.00 0.00 0.00 59 1014.7
20260508001131 63 300 1.0 0.0 0.00 0.00 0.00 55 1014.6
20260507234945 64 303 1.0 6.0 0.00 0.00 0.00 51 1014.6
20260507233958 65 340 2.0 6.0 0.00 0.00 0.00 52 1014.7
20260507232951 66 265 1.0 5.0 0.00 0.00 0.00 49 1014.7
20260507231937 67 266 1.0 6.0 0.00 0.00 0.00 53 1014.8
20260507231001 66 287 1.0 9.0 0.00 0.00 0.00 47 1014.8
20260507225937 66 350 2.0 9.0 0.00 0.00 0.00 49 1014.9
20260507223749 67 5 2.0 7.0 0.00 0.00 0.00 47 1015.3
20260507222803 67 275 2.0 6.0 0.00 0.00 0.00 48 1015.3
20260507221733 67 282 2.0 6.0 0.00 0.00 0.00 47 1015.5
20260507213255 67 256 2.0 9.0 0.00 0.00 0.00 48 1015.5
20260507212225 67 271 2.0 10.0 0.00 0.00 0.00 47 1015.7
20260507211245 66 334 3.0 10.0 0.00 0.00 0.00 50 1015.8
20260507210256 67 325 1.0 10.0 0.00 0.00 0.00 49 1015.9
20260507205225 66 343 2.0 10.0 0.00 0.00 0.00 45 1016.0
20260507204235 66 299 1.0 7.0 0.00 0.00 0.00 51 1016.1
20260507203240 65 35 2.0 7.0 0.00 0.00 0.00 44 1016.4
20260507202222 66 198 3.0 11.0 0.00 0.00 0.00 51 1016.6
20260507200110 65 66 3.0 10.0 0.00 0.00 0.00 51 1016.8
20260507195124 64 256 3.0 6.0 0.00 0.00 0.00 47 1016.9
20260507193015 64 59 2.0 7.0 0.00 0.00 0.00 48 1017.2
20260507191953 64 334 2.0 6.0 0.00 0.00 0.00 50 1017.2
20260507191002 64 294 2.0 10.0 0.00 0.00 0.00 47 1017.3
20260507190001 64 323 3.0 10.0 0.00 0.00 0.00 44 1017.4
20260507185020 64 82 2.0 8.0 0.00 0.00 0.00 50 1017.4
20260507184000 63 219 3.0 8.0 0.00 0.00 0.00 46 1017.7
20260507183005 63 49 2.0 7.0 0.00 0.00 0.00 50 1017.8
20260507182001 63 58 2.0 7.0 0.00 0.00 0.00 44 1017.9
20260507180930 63 237 3.0 7.0 0.00 0.00 0.00 45 1018.1
20260507174831 63 276 1.0 6.0 0.00 0.00 0.00 49 1018.5
20260507173842 63 286 2.0 6.0 0.00 0.00 0.00 49 1018.6
20260507172832 62 179 2.0 7.0 0.00 0.00 0.00 49 1018.8
20260507171807 62 288 3.0 7.0 0.00 0.00 0.00 48 1019.0
20260507170826 61 271 1.0 6.0 0.00 0.00 0.00 50 1019.1
20260507165832 61 293 2.0 6.0 0.00 0.00 0.00 52 1019.2
20260507164838 61 315 1.0 5.0 0.00 0.00 0.00 45 1019.2
20260507163818 62 263 1.0 5.0 0.00 0.00 0.00 50 1019.4
20260507162835 61 309 1.0 5.0 0.00 0.00 0.00 49 1019.4
20260507161831 61 291 1.0 5.0 0.00 0.00 0.00 50 1019.6
20260507160820 60 270 1.0 9.0 0.00 0.00 0.00 52 1019.6
20260507154720 60 284 1.0 5.0 0.00 0.00 0.00 50 1019.8
20260507153727 59 273 1.0 6.0 0.00 0.00 0.00 48 1019.7
20260507150525 58 155 1.0 5.0 0.00 0.00 0.00 55 1019.7
20260507145509 58 311 1.0 5.0 0.00 0.00 0.00 53 1020.0
20260507144512 57 193 1.0 4.0 0.00 0.00 0.00 56 1020.0
20260507143525 57 331 1.0 4.0 0.00 0.00 0.00 58 1020.1
20260507142504 56 231 0.0 4.0 0.00 0.00 0.00 62 1020.1
20260507141440 56 275 0.0 3.0 0.00 0.00 0.00 65 1020.1
20260507140450 55 211 0.0 3.0 0.00 0.00 0.00 66 1020.1
20260507135501 53 279 0.0 0.0 0.00 0.00 0.00 69 1020.2
20260507133403 51 224 0.0 0.0 0.00 0.00 0.00 80 1020.2
20260507131225 47 315 0.0 0.0 0.00 0.00 0.00 83 1020.1
20260507130207 46 315 0.0 0.0 0.00 0.00 0.00 89 1020.2
20260507125232 45 315 0.0 0.0 0.00 0.00 0.00 90 1020.1
20260507124223 44 315 0.0 0.0 0.00 0.00 0.00 97 1020.0
20260507123239 43 315 0.0 0.0 0.00 0.00 0.00 98 1020.1
20260507122256 41 97 0.0 0.0 0.00 0.00 0.00 97 1020.1
20260507121316 40 97 0.0 0.0 0.00 0.00 0.00 97 1020.0
20260507120304 40 97 0.0 0.0 0.00 0.00 0.00 97 1019.8
20260507115307 40 97 0.0 0.0 0.00 0.00 0.00 97 1019.7
20260507114249 40 97 0.0 0.0 0.00 0.00 0.00 97 1019.6
20260507110924 39 97 0.0 0.0 0.00 0.00 0.00 97 1019.3
20260507105910 39 97 0.0 0.0 0.00 0.00 0.00 97 1019.2
20260507104854 39 97 0.0 0.0 0.00 0.00 0.00 97 1019.3
20260507103851 38 97 0.0 0.0 0.00 0.00 0.00 97 1019.3
20260507102852 38 97 0.0 0.0 0.00 0.00 0.00 97 1019.2
20260507101822 37 97 0.0 0.0 0.00 0.00 0.00 97 1019.0
20260507100842 37 97 0.0 0.0 0.00 0.00 0.00 97 1019.3
20260507095844 36 97 0.0 0.0 0.00 0.00 0.00 96 1019.4
20260507094811 36 97 0.0 0.0 0.00 0.00 0.00 95 1019.2
20260507093748 36 97 0.0 0.0 0.00 0.00 0.00 95 1019.2
20260507091623 36 97 0.0 0.0 0.00 0.00 0.00 94 1019.1
20260507090630 36 97 0.0 0.0 0.00 0.00 0.00 94 1019.0
20260507085613 36 97 0.0 0.0 0.00 0.00 0.00 94 1019.0
20260507084624 37 97 0.0 0.0 0.00 0.00 0.00 94 1018.9
20260507083551 37 97 0.0 0.0 0.00 0.00 0.00 94 1018.8
20260507082616 37 97 0.0 0.0 0.00 0.00 0.00 94 1018.8
20260507080510 37 97 0.0 0.0 0.00 0.00 0.00 93 1018.9
20260507075447 38 97 0.0 0.0 0.00 0.00 0.00 93 1019.1
20260507074444 38 97 0.0 0.0 0.00 0.00 0.00 93 1019.2